Hourly Weather Smorodinka

Today, 23 April, Friday

Time Temperature Precipitation Wind Pressure Humidity
00:00 +8°C° 0 mm 3 mps 747 mmHg 82%
01:00 +8°C° 0 mm 3 mps 747 mmHg 82%
02:00 +8°C° 0 mm 3 mps 747 mmHg 83%
03:00 +8°C° 0 mm 3 mps 747 mmHg 82%
04:00 +8°C° 0 mm 3 mps 747 mmHg 81%
05:00 +8°C° 0 mm 3 mps 747 mmHg 80%
06:00 +10°C° 0.1 mm 4 mps 747 mmHg 75%
07:00 +11°C° 0.1 mm 4 mps 746 mmHg 70%
08:00 +13°C° 0.1 mm 5 mps 746 mmHg 65%
09:00 +14°C° 0.2 mm 5 mps 746 mmHg 59%
10:00 +15°C° 0.2 mm 6 mps 746 mmHg 53%
11:00 +16°C° 0.2 mm 6 mps 745 mmHg 47%
12:00 +15°C° 0 mm 6 mps 745 mmHg 50%
13:00 +15°C° 0 mm 5 mps 745 mmHg 52%
14:00 +15°C° 0 mm 5 mps 744 mmHg 55%
15:00 +14°C° 0.1 mm 5 mps 744 mmHg 57%
16:00 +14°C° 0.1 mm 5 mps 743 mmHg 60%
17:00 +14°C° 0.1 mm 5 mps 743 mmHg 62%
18:00 +12°C° 0.4 mm 4 mps 743 mmHg 70%
19:00 +11°C° 0.4 mm 4 mps 743 mmHg 78%
20:00 +9°C° 0.4 mm 3 mps 743 mmHg 86%
21:00 +9°C° 0.3 mm 3 mps 742 mmHg 87%
22:00 +9°C° 0.3 mm 3 mps 742 mmHg 89%
23:00 +9°C° 0.3 mm 2 mps 741 mmHg 91%

Tomorrow, 24 April, Saturday

Time Temperature Precipitation Wind Pressure Humidity
00:00 +7°C° 0.5 mm 4 mps 741 mmHg 91%
01:00 +6°C° 0.5 mm 5 mps 741 mmHg 91%
02:00 +4°C° 0.5 mm 6 mps 741 mmHg 91%
03:00 +3°C° 0.3 mm 5 mps 741 mmHg 91%
04:00 +3°C° 0.3 mm 5 mps 741 mmHg 91%
05:00 +3°C° 0.3 mm 4 mps 741 mmHg 91%
06:00 +3°C° 0.1 mm 5 mps 741 mmHg 84%
07:00 +5°C° 0.1 mm 5 mps 741 mmHg 78%
08:00 +6°C° 0.1 mm 5 mps 741 mmHg 71%
09:00 +5°C° 0.2 mm 6 mps 741 mmHg 65%
10:00 +7°C° 0.2 mm 6 mps 741 mmHg 59%
11:00 +8°C° 0.2 mm 7 mps 741 mmHg 53%
12:00 +7°C° 0.1 mm 8 mps 741 mmHg 50%
13:00 +7°C° 0.1 mm 9 mps 741 mmHg 46%
14:00 +7°C° 0.1 mm 9 mps 741 mmHg 42%
15:00 +6°C° 0.1 mm 9 mps 741 mmHg 48%
16:00 +5°C° 0.1 mm 8 mps 741 mmHg 53%
17:00 +4°C° 0.1 mm 8 mps 742 mmHg 58%
18:00 +2°C° 0 mm 8 mps 742 mmHg 63%
19:00 +1°C° 0 mm 8 mps 742 mmHg 69%
20:00 0°C° 0 mm 8 mps 743 mmHg 74%
21:00 -1°C° 0 mm 7 mps 743 mmHg 74%
22:00 -1°C° 0 mm 7 mps 743 mmHg 74%
23:00 -1°C° 0 mm 7 mps 743 mmHg 75%

Day after tomorrow, 25 April, Sunday

Time Temperature Precipitation Wind Pressure Humidity
00:00 -2°C° 0 mm 7 mps 744 mmHg 76%
01:00 -2°C° 0 mm 7 mps 744 mmHg 77%
02:00 -2°C° 0 mm 6 mps 744 mmHg 78%
03:00 -2°C° 0 mm 6 mps 745 mmHg 79%
04:00 -2°C° 0 mm 5 mps 745 mmHg 79%
05:00 -2°C° 0 mm 5 mps 745 mmHg 80%
06:00 0°C° 0 mm 5 mps 745 mmHg 72%
07:00 +2°C° 0 mm 6 mps 745 mmHg 64%
08:00 +3°C° 0 mm 7 mps 745 mmHg 57%
09:00 +4°C° 0 mm 7 mps 745 mmHg 51%
10:00 +5°C° 0 mm 6 mps 745 mmHg 46%
11:00 +8°C° 0 mm 6 mps 745 mmHg 41%
12:00 +8°C° 0 mm 7 mps 745 mmHg 39%
13:00 +8°C° 0 mm 7 mps 745 mmHg 37%
14:00 +9°C° 0 mm 7 mps 744 mmHg 35%
15:00 +8°C° 0.1 mm 7 mps 744 mmHg 47%
16:00 +7°C° 0.1 mm 6 mps 744 mmHg 60%
17:00 +5°C° 0.1 mm 6 mps 744 mmHg 72%
18:00 +5°C° 0.4 mm 5 mps 744 mmHg 77%
19:00 +3°C° 0.4 mm 5 mps 744 mmHg 82%
20:00 +4°C° 0.4 mm 4 mps 744 mmHg 87%
21:00 +3°C° 0.1 mm 4 mps 744 mmHg 86%
22:00 +1°C° 0.1 mm 4 mps 744 mmHg 85%
23:00 +2°C° 0.1 mm 3 mps 744 mmHg 85%

26 April, Monday

Time Temperature Precipitation Wind Pressure Humidity
00:00 +1°C° 0 mm 3 mps 744 mmHg 85%
01:00 +1°C° 0 mm 3 mps 744 mmHg 86%
02:00 +1°C° 0 mm 2 mps 744 mmHg 87%
03:00 +1°C° 0 mm 2 mps 744 mmHg 87%
04:00 +1°C° 0 mm 2 mps 744 mmHg 86%
05:00 -1°C° 0 mm 2 mps 744 mmHg 86%
06:00 +2°C° 0 mm 2 mps 744 mmHg 78%
07:00 +3°C° 0 mm 2 mps 744 mmHg 70%
08:00 +4°C° 0 mm 3 mps 744 mmHg 62%
09:00 +5°C° 0 mm 3 mps 744 mmHg 56%
10:00 +7°C° 0 mm 3 mps 744 mmHg 51%
11:00 +8°C° 0 mm 3 mps 743 mmHg 45%
12:00 +8°C° 0.1 mm 3 mps 743 mmHg 46%
13:00 +8°C° 0.1 mm 3 mps 743 mmHg 46%
14:00 +8°C° 0.1 mm 3 mps 743 mmHg 47%
15:00 +8°C° 0.2 mm 3 mps 743 mmHg 51%
16:00 +7°C° 0.2 mm 2 mps 742 mmHg 55%
17:00 +7°C° 0.2 mm 2 mps 742 mmHg 59%
18:00 +6°C° 0.1 mm 2 mps 742 mmHg 65%
19:00 +5°C° 0.1 mm 2 mps 742 mmHg 71%
20:00 +4°C° 0.1 mm 2 mps 742 mmHg 76%
21:00 +4°C° 0.1 mm 2 mps 742 mmHg 77%
22:00 +4°C° 0.1 mm 2 mps 742 mmHg 79%
23:00 +4°C° 0.1 mm 2 mps 742 mmHg 80%

27 April, Tuesday

Time Temperature Precipitation Wind Pressure Humidity
00:00 +3°C° 0 mm 2 mps 742 mmHg 83%
01:00 +2°C° 0 mm 2 mps 742 mmHg 86%
02:00 +1°C° 0 mm 3 mps 742 mmHg 89%
03:00 0°C° 0 mm 3 mps 742 mmHg 91%
04:00 -1°C° 0 mm 4 mps 742 mmHg 92%
05:00 -1°C° 0 mm 4 mps 742 mmHg 94%
06:00 0°C° 0 mm 4 mps 742 mmHg 85%
07:00 +1°C° 0 mm 4 mps 742 mmHg 77%
08:00 +2°C° 0 mm 5 mps 742 mmHg 68%
09:00 +5°C° 0.1 mm 5 mps 742 mmHg 61%
10:00 +6°C° 0.1 mm 5 mps 742 mmHg 53%
11:00 +7°C° 0.1 mm 5 mps 742 mmHg 46%
12:00 +7°C° 0 mm 5 mps 742 mmHg 45%
13:00 +7°C° 0 mm 5 mps 742 mmHg 44%
14:00 +7°C° 0 mm 5 mps 742 mmHg 43%
15:00 +7°C° 0.2 mm 5 mps 742 mmHg 47%
16:00 +7°C° 0.2 mm 5 mps 742 mmHg 51%
17:00 +6°C° 0.2 mm 5 mps 742 mmHg 55%
18:00 +5°C° 0 mm 4 mps 742 mmHg 61%
19:00 +4°C° 0 mm 3 mps 743 mmHg 68%
20:00 +2°C° 0 mm 3 mps 743 mmHg 74%
21:00 +2°C° 0 mm 3 mps 743 mmHg 77%
22:00 +1°C° 0 mm 3 mps 743 mmHg 80%
23:00 +1°C° 0 mm 3 mps 744 mmHg 83%

28 April, Wednesday

Time Temperature Precipitation Wind Pressure Humidity
00:00 0°C° 0 mm 3 mps 744 mmHg 85%
01:00 0°C° 0 mm 3 mps 744 mmHg 87%
02:00 +1°C° 0 mm 2 mps 745 mmHg 88%
03:00 +1°C° 0 mm 2 mps 745 mmHg 88%
04:00 +1°C° 0 mm 2 mps 745 mmHg 87%
05:00 +1°C° 0 mm 2 mps 746 mmHg 86%
06:00 +1°C° 0 mm 3 mps 746 mmHg 77%
07:00 +3°C° 0 mm 3 mps 746 mmHg 69%
08:00 +5°C° 0 mm 4 mps 746 mmHg 60%
09:00 +6°C° 0 mm 4 mps 746 mmHg 56%
10:00 +7°C° 0 mm 4 mps 746 mmHg 53%
11:00 +8°C° 0 mm 4 mps 746 mmHg 49%
12:00 +10°C° 0 mm 4 mps 746 mmHg 49%
13:00 +10°C° 0 mm 4 mps 746 mmHg 48%
14:00 +11°C° 0 mm 4 mps 746 mmHg 48%
15:00 +11°C° 0 mm 4 mps 746 mmHg 51%
16:00 +11°C° 0 mm 3 mps 745 mmHg 53%
17:00 +12°C° 0 mm 2 mps 745 mmHg 55%
18:00 +10°C° 0 mm 2 mps 745 mmHg 59%
19:00 +8°C° 0 mm 3 mps 745 mmHg 63%
20:00 +7°C° 0 mm 3 mps 745 mmHg 67%
21:00 +7°C° 0 mm 3 mps 745 mmHg 69%
22:00 +7°C° 0 mm 3 mps 745 mmHg 71%
23:00 +5°C° 0 mm 3 mps 745 mmHg 74%
Show more